Tracking 19854 objects as of 23-Sep-2019
HD Live streaming from Space Station
objects crossing your sky now

SL-14 DEB

Track SL-14 DEB now!
10-day predictions


NORAD ID: 29126
Int'l Code: 1985-108Q
Perigee: 435.9 km
Apogee: 442.6 km
Inclination: 82.6 °
Period: 93.2 minutes
Semi major axis: 6810 km
RCS: 0.074 m2 (small)
Launch date: November 22, 1985
Source: Commonwealth of Independent States (former USSR) (CIS)
Launch site: PLESETSK MISSILE AND SPACE COMPLEX (PKMTR)

Note: This is SATELLITE DEBRIS
aabbcc
Your satellite tracking list
Your tracking list is empty




NASA's NSSDC Master Catalog

Two Line Element Set (TLE):
1 29126U 85108Q   19265.75489207  .00009993  00000-0  21289-3 0  9992
2 29126  82.5665 337.1298 0004889  70.3855 289.7921 15.44753372732443
Source of the keplerian elements: AFSPC